This is the latest recevied weather packets stored in our database for station/object RV1CJ-14. If no packets are shown the sender has not sent any weather packets the latest 10 day(s).
| Time | Temp. | Humidity | Pressure | Rain* | Wind** | Luminosity | Snow |
|---|---|---|---|---|---|---|---|
| 1777576803 | 5.56° C | 87% | 1016.8 hPa | 0 mm | - | 0 W/m² | - |
| 1777576203 | 5.56° C | 87% | 1016.8 hPa | 0 mm | - | 0 W/m² | - |
| 1777575604 | 5.56° C | 87% | 1016.6 hPa | 0 mm | - | 0 W/m² | - |
| 1777575003 | 5.56° C | 88% | 1016.6 hPa | 0 mm | - | 0 W/m² | - |
| 1777574403 | 5.56° C | 88% | 1016.5 hPa | 0 mm | - | 0 W/m² | - |
| 1777573803 | 5.56° C | 88% | 1016.7 hPa | 0 mm | - | 0 W/m² | - |
| 1777573203 | 5.56° C | 88% | 1016.7 hPa | 0 mm | - | 0 W/m² | - |
| 1777572603 | 5.56° C | 87% | 1016.7 hPa | 0 mm | - | 0 W/m² | - |
| 1777572003 | 5.56° C | 87% | 1016.7 hPa | 0 mm | - | 0 W/m² | - |
| 1777571403 | 5.56° C | 87% | 1016.8 hPa | 0 mm | - | 0 W/m² | - |
| 1777570803 | 5.56° C | 87% | 1016.7 hPa | 0 mm | - | 0 W/m² | - |
| 1777570204 | 5.56° C | 86% | 1016.8 hPa | 0 mm | - | 5 W/m² | - |
| 1777569603 | 5.56° C | 86% | 1016.8 hPa | 0 mm | - | 0 W/m² | - |
| 1777569003 | 5.56° C | 86% | 1016.7 hPa | 0 mm | - | 5 W/m² | - |
| 1777568403 | 5.56° C | 85% | 1016.7 hPa | 0 mm | - | 5 W/m² | - |
| 1777567803 | 5.56° C | 85% | 1016.7 hPa | 0 mm | - | 7 W/m² | - |
| 1777567203 | 5.56° C | 85% | 1016.8 hPa | 0 mm | - | 9 W/m² | - |
| 1777566603 | 5.56° C | 85% | 1016.7 hPa | 0 mm | - | 9 W/m² | - |
| 1777566003 | 5.56° C | 84% | 1016.6 hPa | 0 mm | - | 11 W/m² | - |
| 1777565403 | 5.56° C | 84% | 1016.6 hPa | 0 mm | - | 12 W/m² | - |
| 1777564803 | 5.56° C | 84% | 1016.7 hPa | 0 mm | - | 25 W/m² | - |
| 1777564204 | 5.56° C | 83% | 1016.8 hPa | 0 mm | - | 21 W/m² | - |
| 1777563603 | 5.56° C | 83% | 1016.7 hPa | 0 mm | - | 21 W/m² | - |
| 1777563003 | 5.56° C | 83% | 1016.6 hPa | 0 mm | - | 25 W/m² | - |
| 1777562403 | 5.56° C | 82% | 1016.6 hPa | 0 mm | - | 26 W/m² | - |
* Rain latest hour (hover to see other rain measurements)
** Current wind speed in m/s (hover to see current wind gust speed)